This demonstration page uses our WeatherBlox Daily Observations layout. Learn more.

Left ArrowRight Arrow

38.88101, -77.10428

Hourly Observations for December 10, 2019

Temp ( °F °C ) Dew Point ( °F °C ) Humidity (%) Winds ( mph kmh ) Pressure ( in mb ) Visibility ( mi km ) Precip ( " mm )
12:52 am 00:52 Cloudy 53 11.7 50 10 89 89 SSW 15 24 29.81 1009 10 16 N/A
1:52 am 01:52 Cloudy 54 12.2 51 10.6 90 90 SSW 20 31 29.82 1010 10 16 N/A
2:52 am 02:52 Cloudy 54 12.2 51 10.6 90 90 SSW 14 22 29.82 1010 10 16 N/A
3:52 am 03:52 Cloudy 54 12.2 51 10.6 90 90 SSW 16 26 29.81 1010 10 16 N/A
4:52 am 04:52 Cloudy 55 12.8 51 10.6 87 87 SSW 15 24 29.82 1010 10 16 N/A
5:52 am 05:52 Cloudy 55 12.8 51 10.6 87 87 SSW 12 19 29.82 1010 10 16 N/A
6:52 am 06:52 Cloudy 56 13.3 52 11.1 87 87 S 16 26 29.82 1010 10 16 N/A
7:52 am 07:52 Cloudy 57 13.9 53 11.7 87 87 SSW 12 19 29.85 1011 10 16 N/A
8:52 am 08:52 Cloudy 57 13.9 54 12.2 90 90 SSW 14 22 29.84 1011 10 16 N/A
9:52 am 09:52 Cloudy with Light Rain 58 14.4 55 12.8 90 90 SSW 12 19 29.85 1011 8 13 0.01 0.25
10:52 am 10:52 Cloudy 59 15 56 13.3 90 90 SSW 12 19 29.87 1012 10 16 0.01 0.25
11:06 am 11:06 Cloudy with Light Rain 59 15 56 13.3 90 90 SSW 10 17 29.87 1012 10 16 0.01 0.25
11:32 am 11:32 Cloudy 59 15 56 13.3 90 90 WSW 7 11 29.86 1011 10 16 0.01 0.25
11:52 am 11:52 Cloudy 59 15 56 13.3 90 90 SSW 7 11 29.85 1011 10 16 0.01 0.25
12:25 pm 12:25 Cloudy 59 15 56 13.3 90 90 SW 7 11 29.87 1012 10 16 N/A
12:40 pm 12:40 Cloudy 60 15.6 57 13.9 90 90 SW 5 7 29.87 1012 10 16 N/A
12:52 pm 12:52 Cloudy 59 15 57 13.9 93 93 SW 3 6 29.87 1012 10 16 N/A
1:38 pm 13:38 Cloudy 57 13.9 55 12.8 93 93 S 7 11 29.86 1011 8 13 0.00 0.00
1:52 pm 13:52 Cloudy 58 14.4 56 13.3 93 93 N N/A 29.86 1011 9 14 0.00 0.00
1:58 pm 13:58 Cloudy 59 15 56 13.3 90 90 N N/A 29.86 1011 10 16 N/A
2:30 pm 14:30 Cloudy with Light Rain 57 13.9 55 12.8 93 93 N N/A 29.88 1012 6 10 0.00 0.00
2:35 pm 14:35 Cloudy with Light Rain 57 13.9 55 12.8 93 93 N N/A 29.88 1012 7 11 0.00 0.00
2:43 pm 14:43 Cloudy 57 13.9 56 13.3 96 96 N 6 9 29.89 1012 7 11 0.00 0.00
2:52 pm 14:52 Cloudy 58 14.4 55 12.8 90 90 NNW 13 20 29.89 1012 8 13 0.00 0.00
3:52 pm 15:52 Cloudy with Light Rain 57 13.9 53 11.7 87 87 NW 8 13 29.93 1014 10 16 0.03 0.76
4:52 pm 16:52 Cloudy 56 13.3 53 11.7 90 90 N 7 11 29.95 1014 10 16 0.00 0.00
5:52 pm 17:52 Cloudy with Light Rain 54 12.2 49 9.4 83 83 NW 9 15 29.99 1016 10 16 0.03 0.76
6:52 pm 18:52 Cloudy with Light Rain 53 11.7 47 8.3 80 80 NNW 14 22 30.04 1017 10 16 0.00 0.00
7:52 pm 19:52 Cloudy 48 8.9 41 5 77 77 NNW 17 28 30.08 1019 10 16 0.01 0.25
8:52 pm 20:52 Cloudy with Rain 46 7.8 41 5 83 83 NNW 15 24 30.10 1019 9 14 0.00 0.00
9:52 pm 21:52 Cloudy with Light Rain 44 6.7 38 3.3 79 79 NW 15 24 30.14 1021 10 16 0.01 0.25
10:52 pm 22:52 Cloudy with Light Rain 42 5.6 36 2.2 79 79 NNW 15 24 30.17 1022 10 16 0.00 0.00
11:52 pm 23:52 Cloudy with Light Rain 39 3.9 36 2.2 89 89 NNW 17 28 30.18 1022 10 16 0.02 0.51

Powered by AerisWeather